Spokane Fairchild, WA
on Monday, November 12, 2012

Monday
Previous Day Next Day
Daily Summary
 ActualAverage (KGEG)Record (KGEG)
Temperature
Mean Temperature °F 37°F  
Max Temperature 33°F 43°F 67°F (1999)
Min Temperature 29°F 31°F 0°F (1955)
Degree Days
Heating Degree Days 34 28  
Month to date heating degree days 311  
Since 1 July heating degree days 1099  
Cooling Degree Days 0 0  
Month to date cooling degree days 0  
Year to date cooling degree days 450  
Moisture
Dew Point 32°F   
Average Humidity 100    
Maximum Humidity 100    
Minimum Humidity 100    
Precipitation
Precipitation 0.17 in 0.08 in 1.06 in (1911)
Month to date precipitation 0.84  
Year to date precipitation 12.80  
Snow
Snow 0.00 in 0.20 in 7.20 in (1911)
Month to date snowfall 1.4  
Since 1 July snowfall 1.5  
Since 1 September snowfall 1.5  
Snow Depth in   
Wind
Wind Speed 7 mph   
Max Wind Speed 14 mph   
Max Gust Speed mph   
Visibility 6 miles   
Events Fog , Rain , Snow   

Key: T is trace of precipitation, MM is missing value
Source: NWS Daily Summary
Time(PST)TemperatureDew PointHumidity Pressure Visibility Wind DirectionWind SpeedGust SpeedPrecipitationEvents Conditions
12:08 AM 30.2°F 30.2°F 100% 30.25 in 10.0 miles NE 4.6 mph - N/A Snow Light Snow
12:13 AM 30.2°F 30.2°F 100% 30.25 in 9.0 miles NE 4.6 mph - N/A Snow Light Snow
12:23 AM 30.2°F 30.2°F 100% 30.25 in 8.0 miles NE 4.6 mph - N/A Snow Light Snow
12:58 AM 29.8°F 29.8°F 100% 30.32 in 5.0 miles ENE 6.9 mph - 0.00 in Snow Light Snow
1:58 AM 30.2°F 30.2°F 100% 30.31 in 5.0 miles ENE 6.9 mph - 0.01 in Snow Light Snow
2:08 AM 30.2°F 30.2°F 100% 30.23 in 4.0 miles East 6.9 mph - N/A Snow Light Snow
2:45 AM 30.2°F 30.2°F 100% 30.22 in 4.0 miles East 8.1 mph - N/A Snow Light Snow
2:58 AM 32.0°F 32.0°F 100% 30.30 in 3.0 miles East 8.1 mph - 0.02 in Snow Light Snow
3:48 AM 32.0°F 32.0°F 100% 30.21 in 3.0 miles ESE 10.4 mph - N/A Snow Light Snow
3:58 AM 30.7°F 30.7°F 100% 30.28 in 4.0 miles ESE 10.4 mph - 0.03 in Snow Light Snow
4:38 AM 32.0°F 32.0°F 100% 30.19 in 7.0 miles ESE 13.8 mph - N/A Snow Light Snow
4:58 AM 30.7°F 30.7°F 100% 30.28 in 9.0 miles ESE 12.7 mph - 0.01 in   Overcast
5:58 AM 30.7°F 30.7°F 100% 30.27 in 4.0 miles ESE 11.5 mph - 0.01 in Snow Light Snow
6:03 AM 32.0°F 32.0°F 100% 30.19 in 3.0 miles ESE 12.7 mph - N/A Snow Light Snow
6:18 AM 32.0°F 32.0°F 100% 30.19 in 3.0 miles ESE 11.5 mph - N/A Snow Light Snow
6:58 AM 30.7°F 30.7°F 100% 30.27 in 3.0 miles ESE 13.8 mph - 0.01 in Snow Light Snow
7:03 AM 32.0°F 32.0°F 100% 30.18 in 3.0 miles ESE 13.8 mph - N/A Snow Light Snow
7:08 AM 32.0°F 32.0°F 100% 30.18 in 3.0 miles ESE 12.7 mph - N/A Snow Light Snow
7:58 AM 31.1°F 31.1°F 100% 30.26 in 6.0 miles ESE 12.7 mph - 0.00 in Snow Light Snow
8:18 AM 32.0°F 32.0°F 100% 30.19 in 9.0 miles ESE 9.2 mph - N/A Snow Light Snow
8:33 AM 32.0°F 32.0°F 100% 30.19 in 10.0 miles SE 12.7 mph - N/A Snow Light Snow
8:58 AM 31.8°F 31.8°F 100% 30.27 in 8.0 miles ESE 12.7 mph - 0.01 in   Overcast
9:43 AM 32.0°F 32.0°F 100% 30.19 in 10.0 miles SE 11.5 mph - N/A Snow Light Snow
9:58 AM 32.4°F 32.4°F 100% 30.27 in 10.0 miles SE 11.5 mph - 0.00 in Snow Light Snow
10:58 AM 32.9°F 32.9°F 100% 30.26 in 10.0 miles SE 10.4 mph - 0.01 in Snow Light Snow
11:09 AM 32.0°F 32.0°F 100% 30.18 in 10.0 miles SE 8.1 mph - N/A Snow Light Snow
11:19 AM 32.0°F 32.0°F 100% 30.18 in 10.0 miles SE 9.2 mph - N/A Snow Light Snow
11:58 AM 32.7°F 32.7°F 100% 30.26 in 10.0 miles SE 8.1 mph - 0.01 in Snow Light Snow
12:58 PM 32.9°F 32.9°F 100% 30.25 in 9.0 miles SE 10.4 mph - 0.02 in Snow Light Snow
1:23 PM 32.0°F 32.0°F 100% 30.17 in 7.0 miles ESE 11.5 mph - N/A Snow Light Snow
1:33 PM 32.0°F 32.0°F 100% 30.17 in 7.0 miles ESE 10.4 mph - N/A Snow Light Snow
1:58 PM 32.9°F 32.9°F 100% 30.25 in 10.0 miles SE 11.5 mph - 0.02 in Snow Light Snow
2:08 PM 32.0°F 32.0°F 100% 30.16 in 10.0 miles SE 10.4 mph - N/A Snow Light Snow
2:58 PM 32.9°F 32.9°F 100% 30.25 in 10.0 miles SE 8.1 mph - 0.00 in Rain Light Rain
3:14 PM 32.0°F 32.0°F 100% 30.16 in 10.0 miles ESE 9.2 mph - N/A Rain Light Rain
3:59 PM 32.9°F 32.9°F 100% 30.25 in 10.0 miles ESE 8.1 mph - 0.01 in Rain Light Rain
4:09 PM 32.0°F 32.0°F 100% 30.17 in 9.0 miles ESE 6.9 mph - N/A Rain Light Rain
4:39 PM 32.0°F 32.0°F 100% 30.16 in 7.0 miles ESE 6.9 mph - N/A   Overcast
4:48 PM 32.0°F 32.0°F 100% 30.16 in 8.0 miles ESE 8.1 mph - N/A Rain Light Rain
4:58 PM 33.3°F 33.3°F 100% 30.24 in 7.0 miles ESE 5.8 mph - 0.00 in Rain Light Rain
4:59 PM 32.0°F 32.0°F 100% 30.16 in 7.0 miles ESE 6.9 mph - N/A   Overcast
5:09 PM 32.0°F 32.0°F 100% 30.16 in 6.0 miles SE 8.1 mph - N/A   Light Drizzle
5:58 PM 33.6°F 33.6°F 100% 30.25 in 8.0 miles SE 6.9 mph - 0.00 in Rain Light Rain
6:01 PM 32.0°F 32.0°F 100% 30.17 in 8.0 miles SE 8.1 mph - N/A   Overcast
6:03 PM 32.0°F 32.0°F 100% 30.17 in 8.0 miles SE 6.9 mph - N/A Rain Light Rain
6:13 PM 32.0°F 32.0°F 100% 30.17 in 10.0 miles SE 6.9 mph - N/A   Overcast
6:22 PM 32.0°F 32.0°F 100% 30.18 in 10.0 miles SSE 3.5 mph - N/A   Light Drizzle
6:58 PM 33.4°F 33.4°F 100% 30.26 in 9.0 miles SSE 4.6 mph - 0.00 in   Light Drizzle
7:17 PM 32.0°F 32.0°F 100% 30.19 in 7.0 miles SSE 3.5 mph - N/A   Overcast
7:37 PM 32.0°F 32.0°F 100% 30.19 in 8.0 miles Calm Calm - N/A   Overcast
7:58 PM 33.6°F 33.6°F 100% 30.27 in 9.0 miles Calm Calm - 0.00 in   Overcast
8:40 PM 33.8°F 33.8°F 100% 30.19 in 5.0 miles SE 2.3 mph - N/A   Overcast
8:50 PM 33.8°F 33.8°F 100% 30.19 in 3.0 miles SE 2.3 mph - N/A   Overcast
8:58 PM 33.8°F 33.8°F 100% 30.27 in 3.0 miles ESE 3.5 mph - 0.00 in   Overcast
9:08 PM 32.0°F 32.0°F 100% 30.20 in 2.5 miles East 2.3 mph - N/A   Overcast
9:09 PM 32.0°F 32.0°F 100% 30.20 in 2.5 miles ESE 1.2 mph - N/A   Overcast
9:24 PM 32.0°F 32.0°F 100% 30.20 in 1.8 miles East 2.3 mph - N/A   Overcast
9:34 PM 32.0°F 32.0°F 100% 30.21 in 2.0 miles East 2.3 mph - N/A   Light Drizzle
9:52 PM 33.8°F 33.8°F 100% 30.20 in 1.8 miles East 3.5 mph - N/A   Overcast
9:58 PM 33.6°F 33.6°F 100% 30.28 in 1.5 miles East 3.5 mph - 0.00 in   Overcast
10:08 PM 32.0°F 32.0°F 100% 30.21 in 2.0 miles ESE 3.5 mph - N/A   Overcast
10:16 PM 32.0°F 32.0°F 100% 30.21 in 3.0 miles SE 4.6 mph - N/A   Light Drizzle
10:21 PM 32.0°F 32.0°F 100% 30.21 in 2.5 miles SSE 4.6 mph - N/A   Light Drizzle
10:31 PM 32.0°F 32.0°F 100% 30.21 in 2.5 miles SE 3.5 mph - N/A   Light Drizzle
10:36 PM 32.0°F 32.0°F 100% 30.21 in 1.8 miles SE 3.5 mph - N/A   Light Drizzle
10:38 PM 32.0°F 32.0°F 100% 30.21 in 1.5 miles SE 2.3 mph - N/A   Overcast
10:43 PM 32.0°F 32.0°F 100% 30.21 in 1.2 miles SE 2.3 mph - N/A   Overcast
10:48 PM 33.8°F 33.8°F 100% 30.21 in 1.0 miles Calm Calm - N/A   Mist
10:57 PM 33.8°F 33.8°F 100% 30.21 in 1.0 miles Calm Calm - N/A   Light Drizzle
10:58 PM 33.8°F 33.8°F 100% 30.28 in 1.0 miles Calm Calm - 0.00 in   Light Drizzle
11:06 PM 33.8°F 33.8°F 100% 30.21 in 0.8 miles East 1.2 mph - N/A   Mist
11:21 PM 33.8°F 33.8°F 100% 30.22 in 0.8 miles East 2.3 mph - N/A   Mist
11:26 PM 33.8°F 33.8°F 100% 30.21 in 0.5 miles East 2.3 mph - N/A Fog Fog
11:44 PM 33.8°F 33.8°F 100% 30.22 in 0.5 miles NE 2.3 mph - N/A Fog Fog
11:58 PM 33.8°F 33.8°F 100% 30.30 in 0.5 miles SE 2.3 mph - 0.00 in Fog Fog
Moon Phase
Nov. 12 Nov. 13 Nov. 20 Nov. 28 Dec. 06
Sunrise:06:52 AM (PST) Moon Rise:05:19 AM (PST)11/12
Sunset:04:16 PM (PST) Moon Set:03:27 PM (PST)11/12

Copyright © 2014 The Weather Underground, Inc.